N361LE KTEX-KLXV

Flight info

Callsign N361LE
Flight time N/A
Altitude 16500
Route TEX LXV
Aircraft C404/L-VGDW/C

Departure

Time 2026-04-18 23:23
Airport Telluride Regional Airport (KTEX)

Arrival

Time N/A
Airport Lake County Airport (KLXV)
Time Latitude Longitude Altitude Speed Heading
2026-04-18 23:16 37.95492 -107.90414 9083 ft 0 kts 285°
2026-04-18 23:19 37.95483 -107.90422 9083 ft 7 kts 176°
2026-04-18 23:19 37.95449 -107.90431 9083 ft 1 kts 195°
2026-04-18 23:19 37.95437 -107.90436 9083 ft 7 kts 199°
2026-04-18 23:20 37.95370 -107.90460 9083 ft 9 kts 193°
2026-04-18 23:20 37.95347 -107.90468 9083 ft 0 kts 193°
2026-04-18 23:21 37.95344 -107.90469 9083 ft 3 kts 193°
2026-04-18 23:21 37.95301 -107.90484 9083 ft 4 kts 231°
2026-04-18 23:21 37.95301 -107.90492 9083 ft 0 kts 285°
2026-04-18 23:21 37.95322 -107.90590 9083 ft 38 kts 284°
2026-04-18 23:22 37.95445 -107.91176 9083 ft 96 kts 284°
2026-04-18 23:22 37.95648 -107.92111 9247 ft 118 kts 283°
2026-04-18 23:22 37.95874 -107.93132 9642 ft 120 kts 284°
2026-04-18 23:23 37.96307 -107.95129 10493 ft 122 kts 284°
2026-04-18 23:23 37.96511 -107.96171 10948 ft 119 kts 284°
2026-04-18 23:23 37.96689 -107.97180 11443 ft 116 kts 284°
2026-04-18 23:23 37.96853 -107.98202 11843 ft 122 kts 284°
2026-04-18 23:24 37.97020 -107.99286 12226 ft 128 kts 285°
2026-04-18 23:24 37.97460 -108.00344 12473 ft 146 kts 313°
2026-04-18 23:24 37.98153 -108.01240 13068 ft 139 kts 319°
2026-04-18 23:24 37.98853 -108.02045 13661 ft 135 kts 320°
2026-04-18 23:25 37.99556 -108.02852 14159 ft 138 kts 319°
2026-04-18 23:25 38.00246 -108.03668 14740 ft 133 kts 318°
2026-04-18 23:25 38.00986 -108.04345 15248 ft 136 kts 336°
2026-04-18 23:25 38.01942 -108.04485 15648 ft 146 kts
2026-04-18 23:26 38.02855 -108.03836 16038 ft 162 kts 41°
2026-04-18 23:26 38.03566 -108.02775 16666 ft 147 kts 40°
2026-04-18 23:26 38.04212 -108.01855 17295 ft 137 kts 37°
2026-04-18 23:26 38.04882 -108.00949 17671 ft 146 kts 37°
2026-04-18 23:27 38.05611 -107.99969 17831 ft 167 kts 37°
2026-04-18 23:27 38.06465 -107.98807 17882 ft 189 kts 40°
2026-04-18 23:27 38.07400 -107.97494 17870 ft 206 kts 41°
2026-04-18 23:27 38.08387 -107.96089 17796 ft 220 kts 41°
2026-04-18 23:28 38.09415 -107.94611 17785 ft 225 kts 42°
2026-04-18 23:28 38.10478 -107.93101 17657 ft 233 kts 41°
2026-04-18 23:28 38.11562 -107.91565 17479 ft 239 kts 42°
2026-04-18 23:28 38.12663 -107.89999 17468 ft 236 kts 42°
2026-04-18 23:29 38.13749 -107.88455 17486 ft 234 kts 42°
2026-04-18 23:29 38.14827 -107.86918 17495 ft 232 kts 42°
2026-04-18 23:29 38.15904 -107.85389 17499 ft 232 kts 42°
2026-04-18 23:29 38.16979 -107.83866 17497 ft 232 kts 42°
2026-04-18 23:30 38.18057 -107.82344 17495 ft 232 kts 42°
2026-04-18 23:30 38.19134 -107.80819 17494 ft 232 kts 41°
2026-04-18 23:30 38.20213 -107.79288 17493 ft 232 kts 41°
2026-04-18 23:30 38.21290 -107.77759 17493 ft 232 kts 42°
2026-04-18 23:31 38.22365 -107.76234 17492 ft 232 kts 41°
2026-04-18 23:31 38.23439 -107.74709 17493 ft 231 kts 41°
2026-04-18 23:31 38.24514 -107.73184 17492 ft 231 kts 41°
2026-04-18 23:31 38.25586 -107.71657 17491 ft 231 kts 42°
2026-04-18 23:32 38.26656 -107.70132 17491 ft 231 kts 42°
2026-04-18 23:32 38.27729 -107.68608 17490 ft 231 kts 41°
2026-04-18 23:32 38.28803 -107.67083 17489 ft 231 kts 41°
2026-04-18 23:32 38.29876 -107.65557 17489 ft 231 kts 41°
2026-04-18 23:33 38.30948 -107.64031 17488 ft 231 kts 41°
2026-04-18 23:33 38.32018 -107.62506 17488 ft 231 kts 41°
2026-04-18 23:33 38.33093 -107.60978 17486 ft 232 kts 41°
2026-04-18 23:33 38.34168 -107.59447 17486 ft 231 kts 42°
2026-04-18 23:34 38.35236 -107.57915 17487 ft 231 kts 41°
2026-04-18 23:34 38.36306 -107.56378 17491 ft 231 kts 41°
2026-04-18 23:34 38.37374 -107.54847 17492 ft 231 kts 41°
2026-04-18 23:34 38.38432 -107.53346 17489 ft 231 kts 41°
2026-04-18 23:35 38.39501 -107.51823 17489 ft 231 kts 41°
2026-04-18 23:35 38.40571 -107.50294 17490 ft 231 kts 41°
2026-04-18 23:35 38.41642 -107.48761 17487 ft 231 kts 41°
2026-04-18 23:35 38.42706 -107.47229 17489 ft 231 kts 41°
2026-04-18 23:36 38.43768 -107.45698 17490 ft 231 kts 41°
2026-04-18 23:36 38.44848 -107.44149 17490 ft 231 kts 41°
2026-04-18 23:36 38.45901 -107.42641 17486 ft 231 kts 41°
2026-04-18 23:36 38.46970 -107.41112 17487 ft 231 kts 41°
2026-04-18 23:37 38.47692 -107.40078 17487 ft 231 kts 41°
2026-04-18 23:37 38.49107 -107.38051 17479 ft 231 kts 41°
2026-04-18 23:37 38.50175 -107.36520 17491 ft 230 kts 41°
2026-04-18 23:37 38.51238 -107.34991 17495 ft 230 kts 41°
2026-04-18 23:38 38.51957 -107.33957 17491 ft 230 kts 41°
2026-04-18 23:38 38.53022 -107.32426 17481 ft 231 kts 41°
2026-04-18 23:38 38.54087 -107.30891 17475 ft 231 kts 41°
2026-04-18 23:38 38.55152 -107.29356 17472 ft 230 kts 41°
2026-04-18 23:39 38.56214 -107.27826 17473 ft 230 kts 41°
2026-04-18 23:39 38.57277 -107.26292 17472 ft 230 kts 41°
2026-04-18 23:39 38.58325 -107.24781 17472 ft 230 kts 41°
2026-04-18 23:39 38.59402 -107.23227 17472 ft 230 kts 41°
2026-04-18 23:40 38.60463 -107.21701 17473 ft 230 kts 40°
2026-04-18 23:40 38.61514 -107.20191 17474 ft 230 kts 40°
2026-04-18 23:40 38.62576 -107.18661 17478 ft 230 kts 40°
2026-04-18 23:40 38.63640 -107.17126 17478 ft 230 kts 40°
2026-04-18 23:41 38.64703 -107.15593 17477 ft 231 kts 41°
2026-04-18 23:41 38.65764 -107.14055 17476 ft 231 kts 40°
2026-04-18 23:41 38.66824 -107.12515 17476 ft 230 kts 40°
2026-04-18 23:41 38.67880 -107.10977 17476 ft 230 kts 40°
2026-04-18 23:42 38.68935 -107.09437 17477 ft 230 kts 40°
2026-04-18 23:42 38.69987 -107.07901 17477 ft 230 kts 40°
2026-04-18 23:42 38.71041 -107.06363 17475 ft 230 kts 40°
2026-04-18 23:42 38.72096 -107.04830 17477 ft 229 kts 40°
2026-04-18 23:43 38.73152 -107.03300 17477 ft 229 kts 40°
2026-04-18 23:43 38.74207 -107.01771 17478 ft 229 kts 40°
2026-04-18 23:43 38.75262 -107.00241 17479 ft 229 kts 40°
2026-04-18 23:43 38.76315 -106.98715 17480 ft 229 kts 40°
2026-04-18 23:44 38.77371 -106.97181 17480 ft 229 kts 40°
2026-04-18 23:44 38.78427 -106.95658 17482 ft 229 kts 40°
2026-04-18 23:44 38.79483 -106.94128 17484 ft 229 kts 40°
2026-04-18 23:44 38.80537 -106.92589 17479 ft 230 kts 40°
2026-04-18 23:45 38.81589 -106.91048 17478 ft 230 kts 40°
2026-04-18 23:45 38.82640 -106.89510 17495 ft 229 kts 40°
2026-04-18 23:45 38.83688 -106.87981 17506 ft 228 kts 40°
2026-04-18 23:45 38.84737 -106.86452 17500 ft 228 kts 40°
2026-04-18 23:46 38.85786 -106.84921 17491 ft 229 kts 40°
2026-04-18 23:46 38.86836 -106.83388 17490 ft 229 kts 40°
2026-04-18 23:46 38.87888 -106.81855 17490 ft 229 kts 40°
2026-04-18 23:46 38.88936 -106.80323 17491 ft 229 kts 40°
2026-04-18 23:47 38.89919 -106.78861 17470 ft 198 kts 40°
2026-04-18 23:47 38.90733 -106.77624 17468 ft 165 kts 38°
2026-04-18 23:47 38.91415 -106.76594 17467 ft 139 kts 36°
2026-04-18 23:47 38.91989 -106.75728 17447 ft 115 kts 33°
2026-04-18 23:48 38.92458 -106.75026 17426 ft 93 kts 30°
2026-04-18 23:48 38.92983 -106.74331 16271 ft 145 kts 34°
2026-04-18 23:48 38.93384 -106.73641 16705 ft 69 kts 34°
2026-04-18 23:48 38.93996 -106.73048 15493 ft 139 kts 21°
2026-04-18 23:49 38.94469 -106.72285 15885 ft 103 kts 63°
2026-04-18 23:49 38.94570 -106.71145 15017 ft 153 kts 87°
2026-04-18 23:49 38.94166 -106.70151 15052 ft 130 kts 165°
2026-04-18 23:49 38.93874 -106.70415 11628 ft 104 kts 111°
2026-04-18 23:50 38.93892 -106.70154 11236 ft 61 kts 89°
2026-04-18 23:50 38.94066 -106.69943 10958 ft 39 kts 143°
2026-04-18 23:50 38.94113 -106.69833 10902 ft 0 kts 156°